THOR ABLESTAR DEB, 753

Orbit data source: Space-Track

THOR ABLESTAR DEB, 753 is space debris in LEO originally from a launch on Thu, 05 Dec 1963 UTC launched from the Air Force Western Test Range (AFWTR). Debris objects in space refer to the collection of defunct objects orbiting the Earth. Examples of debris include non-operational satellites, rocket bodies, and fragments generated from explosions, collisions, or faulty payload assembly.

Loading next visibility...
Identifier
753, 1963-049F
Orbit
LEO
Last TLE update
1 day ago
Origin
Manufacturer
Unknown
Mission
Spacecraft
Bus & Motor
Unknown
Mass
Unknown
Launch date (UTC)
1963-12-05 (62 years ago)
Launch vehicle
Unknown
Launch site
Air Force Western Test Range (AFWTR)
Object type
Payload
Rocket body
Debris
Shape & HBR
Unknown
Radar Cross Section
Small (<0.1 m²)

Expand to show TLE details & history

TLE from 1 day ago
0 THOR ABLESTAR DEB
1 00753U 63049F   25181.70811977  .00000220  00000-0  30625-3 0  9997
2 00753  89.9146  75.8321 0027701 141.1095 273.8644 13.54738105 32969
Epoch: 2025-06-30T16:59Z
TLE epoch observation values (Epoch: 2025-06-30T16:59:41.548Z)
Latitude
54.75123°
Longitude
-97.98485°
Altitude
1,062.67 km
Speed
7.326 km/s
True Right ascension
05h 03m 48s
True Declination
54° 35' 44"
Sunlit
Object was in daylight at epoch
Visualization orbit readout
Latitude
49.87746°
Longitude
-98.01322°
Altitude
1,062.211 km
Speed
7.326 km/s
Apparent Right ascension
22h 31m 10s
Apparent Declination
72° 35' 14"
Sunlit
Object is in daylight
Visualization observer readout
Local Sidereal Time
05:26:54
Azimuth
339.53° N
Elevation
33.848°
Doppler factor
1
Orbital elements
Apogee altitude
1,072.502 km
Perigee altitude
1,031.338 km
Semi-major axis
7,430.057 km
Eccentricity
0.00277
Inclination
89.9146°
RAAN
75.8321°
Arg. of periapsis
141.1095°
True anomaly
Unknown
Mean anomaly
273.8644°
Eccentric anomaly
Unknown
Mean motion
3.38887 °/min
Orbital period
106.23 mins
BSTAR
0.00030625
Loading maneuver chart data...
Loading SW <> Apogee altitude chart data...
Loading historical data...
Loading historical data...
Loading historical data...
Loading historical data...
Loading historical data...
Loading historical data...
Loading historical data...

THOR ABLESTAR DEB Visibility forecast

Observer location: undefined°, undefined°

Span
Click to sort rows by Start time (UTC) header in descending order
Start Az.
Max El. time (UTC)
Max El. Az.
Max El.
End time (UTC)
End Az.
11 mins2025-07-02 04:47:15.172Z16.435° NNE2025-07-02 04:52:15.172Z97.201° ESE38.773°2025-07-02 04:58:15.172Z165.014° S
8 mins2025-07-02 06:34:15.172Z324.401° NNW2025-07-02 06:37:15.172Z290.736° WNW21.361°2025-07-02 06:42:15.172Z237.705° WSW
11 mins2025-07-02 16:42:15.172Z150.741° SSE2025-07-02 16:47:15.172Z78.964° E37.856°2025-07-02 16:53:15.172Z8.896° NNE
|